| time (UTC) | temp F | wind direction | speed MPH | gust MPH | rain 1hr in | rain 24hr in | rain mn in | humidity % | barometer mb |
| 20260507073004 | 49 | 311 | 3.0 | 8.0 | 0.02 | 1.19 | 0.41 | 92 | 1009.9 |
| 20260507071504 | 49 | 345 | 1.0 | 5.0 | 0.02 | 1.19 | 0.41 | 92 | 1009.6 |
| 20260507070058 | 49 | 13 | 1.0 | 6.0 | 0.02 | 1.18 | 0.40 | 92 | 1009.5 |
| 20260507064548 | 49 | 338 | 2.0 | 6.0 | 0.02 | 1.18 | 0.40 | 92 | 1009.3 |
| 20260507063049 | 49 | 327 | 1.0 | 5.0 | 0.02 | 1.17 | 0.39 | 92 | 1009.1 |
| 20260507061547 | 49 | 13 | 1.0 | 9.0 | 0.03 | 1.17 | 0.39 | 92 | 1009.1 |
| 20260507060022 | 49 | 350 | 2.0 | 9.0 | 0.02 | 1.15 | 0.38 | 92 | 1008.9 |
| 20260507054510 | 49 | 336 | 3.0 | 8.0 | 0.03 | 1.15 | 0.38 | 92 | 1008.7 |
| 20260507053006 | 49 | 341 | 2.0 | 10.0 | 0.03 | 1.14 | 0.37 | 92 | 1008.7 |
| 20260507051504 | 49 | 40 | 2.0 | 9.0 | 0.03 | 1.13 | 0.36 | 92 | 1008.7 |
| 20260507050044 | 49 | 307 | 3.0 | 8.0 | 0.04 | 1.13 | 0.36 | 91 | 1008.5 |
| 20260507044541 | 49 | 360 | 3.0 | 5.0 | 0.03 | 1.12 | 0.35 | 91 | 1008.3 |
| 20260507043041 | 50 | 360 | 0.0 | 6.0 | 0.03 | 1.12 | 0.34 | 91 | 1008.2 |
| 20260507041539 | 50 | 344 | 1.0 | 6.0 | 0.03 | 1.11 | 0.33 | 91 | 1007.9 |
| 20260507040013 | 50 | 286 | 0.0 | 4.0 | 0.03 | 1.10 | 0.32 | 91 | 1007.9 |
| 20260507034516 | 50 | 334 | 1.0 | 6.0 | 0.03 | 1.09 | 0.31 | 91 | 1007.7 |
| 20260507033008 | 50 | 341 | 1.0 | 8.0 | 0.05 | 1.09 | 0.31 | 91 | 1007.6 |
| 20260507031510 | 50 | 10 | 3.0 | 6.0 | 0.05 | 1.08 | 0.30 | 91 | 1007.5 |
| 20260507030028 | 51 | 348 | 1.0 | 6.0 | 0.05 | 1.07 | 0.28 | 91 | 1007.2 |
| 20260507024534 | 51 | 289 | 1.0 | 6.0 | 0.05 | 1.06 | 0.28 | 91 | 1007.2 |